sat.trackr.live / text

‹ back to catalog

SJ-11-06

NORAD 39624 · 2014-014A

PAYLOAD ACTIVE UNKNOWN

§ Identity

Operator
Country
PRC
Launch date
2014-03-31
Launch site
JSC
Launch vehicle
Mass (kg)
RCS (m²)
2.36

External: N2YO · Heavens-Above · Gunter

§ Orbital elements

Epoch: 2026-05-25T04:03:18.290016Z

Period
98.51 min
Inclination
97.9493°
Eccentricity
0.0015216
Mean motion
14.61826895 rev/d
Perigee alt
676.5 km
Apogee alt
698.0 km
Semi-major
7,065.4 km
B*
9.6703e-5
RAAN
172.8048°
Arg perigee
61.5365°
Mean anomaly
298.7368°
Rev number
64,733

§ Raw data

SJ-11-061 39624U 14014A   26145.16896169  .00000439  00000+0  96703-4 0  99922 39624  97.9493 172.8048 0015216  61.5365 298.7368 14.61826895647334

JSON: /api/v1/satellites/39624 · /tle

For live sub-satellite position, see the globe view (requires WebGL).

§ Visibility from observer

Set your observer location to see the next 7 days of passes ≥ 10°. The values pass through the URL so the page stays shareable.

No JS? Fill the form by hand. The geolocation button needs JavaScript.